Location: Newark
(45.4422°N, 16.2769°E)
Time: 07:10:26
(UTC+00:00)

Tiros 1 despin weight - Pass Details

Date: 17 December 2019
Orbit: 594 x 642 km, 48.2° (Epoch: 26 January)

Event Time Altitude Azimuth Distance (km) Brightness Sun altitude
Rises 05:04:46 0° 284° (WNW) 2,885 - -14.1°
Reaches altitude 10° 05:07:07 10° 287° (WNW) 1,970 - -13.7°
Exits shadow 05:08:41 21° 291° (WNW) 1,382 ? -13.4°
Maximum altitude 05:11:37 69° 11° (N) 651 ? -12.9°
Drops below altitude 10° 05:16:04 10° 95° (E) 1,939 ? -12.2°
Sets 05:18:21 0° 98° (E) 2,835 ? -11.8°
